This demonstration page uses our WeatherBlox Daily Observations layout. Learn more.

Left ArrowRight Arrow

Hourly Observations for September 12, 2019

Temp ( °F °C ) Dew Point ( °F °C ) Humidity (%) Winds ( mph kmh ) Pressure ( in mb ) Visibility ( mi km ) Precip ( " mm )
12:53 am 00:53 Clear 75 23.9 69 20.6 82 82 Calm 30.12 1020 10 16 0.00 0.00
1:53 am 01:53 Clear 75 23.9 68 20 79 79 Calm 30.12 1020 10 16 0.00 0.00
2:53 am 02:53 Clear 73 22.8 68 20 84 84 Calm 30.11 1020 10 16 0.00 0.00
3:53 am 03:53 Clear 71 21.7 68 20 90 90 Calm 30.10 1019 10 16 0.00 0.00
4:53 am 04:53 Clear 70 21.1 67 19.4 90 90 Calm 30.10 1019 9 14 0.00 0.00
5:53 am 05:53 Clear 69 20.6 67 19.4 93 93 Calm 30.11 1020 7 11 0.00 0.00
6:53 am 06:53 Clear 69 20.6 66 18.9 90 90 Calm 30.13 1020 8 13 0.00 0.00
7:53 am 07:53 Sunny 71 21.7 68 20 90 90 Calm 30.15 1021 8 13 0.00 0.00
8:53 am 08:53 Sunny 75 23.9 69 20.6 82 82 Calm 30.15 1021 10 16 0.00 0.00
9:53 am 09:53 Sunny 80 26.7 69 20.6 69 69 Calm 30.16 1021 10 16 0.00 0.00
10:53 am 10:53 Sunny 87 30.6 68 20 53 53 N 5 7 30.16 1021 10 16 0.00 0.00
11:53 am 11:53 Sunny 89 31.7 67 19.4 48 48 VRB 3 6 30.15 1021 10 16 0.00 0.00
12:53 pm 12:53 Mostly Sunny 93 33.9 64 17.8 38 38 ENE 6 9 30.13 1020 10 16 0.00 0.00
1:53 pm 13:53 Mostly Sunny 93 33.9 63 17.2 37 37 VRB 3 6 30.11 1020 10 16 0.00 0.00
2:53 pm 14:53 Mostly Sunny 96 35.6 62 16.7 32 32 NE 7 11 30.09 1019 10 16 0.00 0.00
3:53 pm 15:53 Partly Cloudy 94 34.4 59 15 31 31 VRB 3 6 30.06 1018 10 16 0.00 0.00
4:53 pm 16:53 Sunny 95 35 59 15 30 30 E 5 7 30.05 1018 10 16 0.00 0.00
5:53 pm 17:53 Mostly Cloudy 96 35.6 57 13.9 27 27 ENE 5 7 30.04 1017 10 16 0.00 0.00
6:53 pm 18:53 Sunny 93 33.9 59 15 32 32 NNE 3 6 30.04 1017 10 16 0.00 0.00
7:53 pm 19:53 Clear 85 29.4 63 17.2 48 48 Calm 30.05 1018 10 16 0.00 0.00
8:53 pm 20:53 Clear 81 27.2 67 19.4 62 62 Calm 30.07 1018 10 16 0.00 0.00
9:53 pm 21:53 Clear 76 24.4 68 20 77 77 Calm 30.09 1019 10 16 0.00 0.00
10:53 pm 22:53 Clear 74 23.3 67 19.4 79 79 Calm 30.09 1019 10 16 0.00 0.00
11:53 pm 23:53 Clear 75 23.9 67 19.4 76 76 Calm 30.09 1019 10 16 0.00 0.00

Powered by AerisWeather